N4XWC Weather Reports


time (UTC)temp
F
wind
direction
speed
knots
gust
knots
rain 1hr
in
rain 24hr
in
rain mn
in
humidity
%
barometer
mb
20260902202224 93 45 2.6 2.6 0.00 0.00 0.00 59 1015.6
20260902202157 94 171 0.0 4.3 0.00 0.00 0.00 56 1015.6
20260902201722 94 157 0.0 0.9 0.00 0.00 0.00 55 1015.6
20260902201223 94 151 0.9 2.6 0.00 0.00 0.00 58 1015.9
20260902201156 94 127 2.6 4.3 0.00 0.00 0.00 58 1015.9
20260902200724 94 120 2.6 2.6 0.00 0.00 0.00 56 1015.9
20260902200240 94 82 2.6 2.6 0.00 0.00 0.00 54 1015.9
20260902200222 94 141 1.7 2.6 0.00 0.00 0.00 55 1015.9
20260902200157 94 82 2.6 2.6 0.00 0.00 0.00 54 1015.9
20260902195723 94 133 2.6 2.6 0.00 0.00 0.00 54 1016.1
20260902195224 94 126 1.7 2.6 0.00 0.00 0.00 52 1016.1
20260902195157 94 48 0.9 0.9 0.00 0.00 0.00 52 1016.1
20260902194722 94 104 2.6 3.5 0.00 0.00 0.00 52 1016.1
20260902194223 94 161 1.7 2.6 0.00 0.00 0.00 53 1016.5
20260902194156 94 42 2.6 4.3 0.00 0.00 0.00 53 1016.5
20260902193724 94 52 0.9 2.6 0.00 0.00 0.00 53 1016.5
20260902193223 93 45 0.9 4.3 0.00 0.00 0.00 53 1016.5
20260902193156 93 59 2.6 2.6 0.00 0.00 0.00 53 1016.5
20260902192722 93 104 1.7 1.7 0.00 0.00 0.00 59 1016.7
20260902192223 93 73 1.7 4.3 0.00 0.00 0.00 56 1016.7
20260902192155 93 109 2.6 4.3 0.00 0.00 0.00 56 1016.7
20260902191723 93 99 2.6 2.6 0.00 0.00 0.00 56 1016.7
20260902191222 93 0 0.0 2.6 0.00 0.00 0.00 58 1016.7
20260902191157 93 59 2.6 2.6 0.00 0.00 0.00 58 1016.7
20260902190722 92 148 0.9 0.9 0.00 0.00 0.00 59 1016.7
20260902190223 92 61 0.0 1.7 0.00 0.00 0.00 60 1016.7
20260902190156 92 41 1.7 1.7 0.00 0.00 0.00 58 1016.7
20260902185723 92 178 0.0 0.9 0.00 0.00 0.00 61 1017.0
20260902185223 92 78 1.7 1.7 0.00 0.00 0.00 58 1017.0
20260902185158 92 13 0.0 1.7 0.00 0.00 0.00 59 1017.0
20260902184722 92 30 0.0 0.9 0.00 0.00 0.00 62 1017.0
20260902184223 92 80 0.9 2.6 0.00 0.00 0.00 59 1017.1
20260902184156 92 189 2.6 2.6 0.00 0.00 0.00 59 1017.1
20260902183723 92 234 0.0 1.7 0.00 0.00 0.00 58 1017.1
20260902183222 92 216 0.0 3.5 0.00 0.00 0.00 57 1017.1
20260902183157 92 124 0.0 0.9 0.00 0.00 0.00 57 1017.1
20260902182723 92 93 3.5 5.2 0.00 0.00 0.00 58 1017.2
20260902182223 92 82 2.6 4.3 0.00 0.00 0.00 57 1017.2
20260902182156 92 90 3.5 4.3 0.00 0.00 0.00 57 1017.2
20260902181722 92 75 1.7 3.5 0.00 0.00 0.00 58 1017.2
20260902181223 92 65 2.6 2.6 0.00 0.00 0.00 56 1017.3
20260902181156 92 78 0.9 1.7 0.00 0.00 0.00 56 1017.3
20260902180723 92 99 0.9 1.7 0.00 0.00 0.00 55 1017.3
20260902180222 92 158 1.7 3.5 0.00 0.00 0.00 55 1017.3
20260902180157 92 66 1.7 4.3 0.00 0.00 0.00 55 1017.3
20260902175723 92 51 1.7 2.6 0.00 0.00 0.00 57 1017.6
20260902175223 92 4 2.6 3.5 0.00 0.00 0.00 58 1017.6
20260902175159 92 10 2.6 2.6 0.00 0.00 0.00 58 1017.6
20260902174722 92 13 1.7 3.5 0.00 0.00 0.00 57 1017.6
20260902174223 92 147 1.7 3.5 0.00 0.00 0.00 55 1017.8
20260902174158 92 110 2.6 4.3 0.00 0.00 0.00 57 1017.8
20260902173723 92 75 4.3 4.3 0.00 0.00 0.00 56 1017.8
20260902173222 92 151 0.9 1.7 0.00 0.00 0.00 56 1017.8
20260902173157 92 88 1.7 1.7 0.00 0.00 0.00 54 1017.8
20260902172723 92 88 2.6 2.6 0.00 0.00 0.00 58 1018.1
20260902172223 92 37 0.9 0.9 0.00 0.00 0.00 59 1018.1
20260902172156 92 14 0.9 0.9 0.00 0.00 0.00 57 1018.1
20260902171724 91 80 0.9 1.7 0.00 0.00 0.00 59 1018.1
20260902171223 91 0 1.7 1.7 0.00 0.00 0.00 62 1018.2
20260902171155 91 354 0.9 2.6 0.00 0.00 0.00 60 1018.2
20260902170722 92 30 0.9 0.9 0.00 0.00 0.00 59 1018.2
20260902170223 92 350 2.6 7.8 0.00 0.00 0.00 61 1018.2
20260902170156 92 16 2.6 3.5 0.00 0.00 0.00 61 1018.2
20260902165724 92 27 4.3 4.3 0.00 0.00 0.00 61 1018.3
20260902165222 92 11 2.6 2.6 0.00 0.00 0.00 63 1018.3
20260902165157 92 11 2.6 3.5 0.00 0.00 0.00 63 1018.3
20260902164723 92 52 0.9 1.7 0.00 0.00 0.00 63 1018.3
20260902164236 92 329 0.9 1.7 0.00 0.00 0.00 62 1018.3
20260902164223 92 6 0.9 1.7 0.00 0.00 0.00 60 1018.3
20260902164156 92 329 0.9 1.7 0.00 0.00 0.00 62 1018.3
20260902163724 92 230 0.0 1.7 0.00 0.00 0.00 64 1018.3
20260902163224 91 284 0.9 2.6 0.00 0.00 0.00 61 1018.3
20260902163156 92 275 2.6 2.6 0.00 0.00 0.00 64 1018.3
20260902162722 92 316 0.9 2.6 0.00 0.00 0.00 63 1018.6
20260902162223 92 116 0.0 0.0 0.00 0.00 0.00 59 1018.6
20260902162155 92 116 0.0 0.9 0.00 0.00 0.00 59 1018.6
20260902161724 92 31 0.0 0.9 0.00 0.00 0.00 57 1018.6
20260902161223 92 340 1.7 1.7 0.00 0.00 0.00 58 1018.7
20260902161156 92 343 0.9 1.7 0.00 0.00 0.00 60 1018.7
20260902160724 91 0 0.9 0.9 0.00 0.00 0.00 60 1018.7
20260902160222 91 186 0.0 1.7 0.00 0.00 0.00 61 1018.7
20260902160155 91 199 1.7 1.7 0.00 0.00 0.00 62 1018.7
20260902155723 91 330 0.9 0.9 0.00 0.00 0.00 62 1018.7
20260902155224 91 354 0.0 0.0 0.00 0.00 0.00 64 1018.7
20260902155156 90 354 0.0 0.9 0.00 0.00 0.00 64 1018.7
20260902154722 91 246 0.0 0.9 0.00 0.00 0.00 64 1018.7
20260902154222 91 301 2.6 2.6 0.00 0.00 0.00 65 1018.7
20260902154157 91 304 0.9 1.7 0.00 0.00 0.00 64 1018.7
20260902153723 91 313 1.7 1.7 0.00 0.00 0.00 65 1018.7
20260902153223 90 0 1.7 1.7 0.00 0.00 0.00 63 1018.7
20260902153156 90 55 0.9 0.9 0.00 0.00 0.00 63 1018.7
20260902152722 90 86 0.9 0.9 0.00 0.00 0.00 64 1018.8
20260902152223 90 79 0.9 1.7 0.00 0.00 0.00 64 1018.8
20260902152156 90 45 1.7 3.5 0.00 0.00 0.00 63 1018.8
20260902151723 90 0 0.0 1.7 0.00 0.00 0.00 64 1018.8
20260902151222 90 0 0.9 1.7 0.00 0.00 0.00 63 1018.6
20260902151157 90 0 0.9 2.6 0.00 0.00 0.00 63 1018.6
20260902150723 90 311 0.0 0.9 0.00 0.00 0.00 65 1018.6
20260902150224 89 353 0.0 1.7 0.00 0.00 0.00 65 1018.6
20260902150156 89 333 1.7 1.7 0.00 0.00 0.00 65 1018.6
20260902145723 89 357 0.9 0.9 0.00 0.00 0.00 65 1018.5
20260902145223 89 1 0.9 0.9 0.00 0.00 0.00 66 1018.5
20260902145155 89 3 0.0 0.9 0.00 0.00 0.00 65 1018.5
20260902144722 89 0 0.9 1.7 0.00 0.00 0.00 64 1018.5
20260902144222 89 0 1.7 1.7 0.00 0.00 0.00 66 1018.4
20260902144156 89 0 0.9 0.9 0.00 0.00 0.00 66 1018.4
20260902143722 88 4 1.7 1.7 0.00 0.00 0.00 69 1018.4
20260902143223 88 147 0.0 0.0 0.00 0.00 0.00 71 1018.4
20260902143200 88 147 0.0 0.0 0.00 0.00 0.00 71 1018.4
20260902142722 88 147 0.0 0.9 0.00 0.00 0.00 72 1018.4
20260902142222 88 109 0.0 0.9 0.00 0.00 0.00 74 1018.4
20260902142156 87 109 0.9 0.9 0.00 0.00 0.00 74 1018.4
20260902141723 87 109 0.0 0.9 0.00 0.00 0.00 74 1018.4
20260902141223 87 109 0.0 0.0 0.00 0.00 0.00 74 1018.5
20260902141157 87 109 0.0 0.0 0.00 0.00 0.00 74 1018.5
20260902140723 86 109 0.0 0.0 0.00 0.00 0.00 75 1018.5
20260902140222 86 109 0.0 0.9 0.00 0.00 0.00 75 1018.5
20260902140157 86 109 0.9 0.9 0.00 0.00 0.00 75 1018.5
20260902135723 85 109 1.7 1.7 0.00 0.00 0.00 76 1018.6
20260902135223 84 109 0.0 0.9 0.00 0.00 0.00 77 1018.6
20260902135157 84 109 0.9 0.9 0.00 0.00 0.00 78 1018.6
20260902134722 83 104 1.7 1.7 0.00 0.00 0.00 79 1018.6
20260902134223 83 114 0.0 0.0 0.00 0.00 0.00 80 1018.6
20260902134155 82 114 0.0 0.9 0.00 0.00 0.00 80 1018.6
20260902133722 82 114 0.9 0.9 0.00 0.00 0.00 81 1018.6
20260902133222 81 114 0.0 0.0 0.00 0.00 0.00 82 1018.6
20260902133157 81 114 0.0 0.0 0.00 0.00 0.00 82 1018.6
20260902132723 81 114 0.9 0.9 0.00 0.00 0.00 85 1018.5
20260902132223 80 114 0.0 0.0 0.00 0.00 0.00 86 1018.5
20260902132156 80 114 0.0 0.0 0.00 0.00 0.00 86 1018.5
20260902131722 80 114 0.0 0.0 0.00 0.00 0.00 86 1018.5
20260902131223 80 114 0.0 0.0 0.00 0.00 0.00 86 1018.6
20260902131155 79 114 0.0 0.0 0.00 0.00 0.00 86 1018.6
20260902130722 79 114 0.0 0.0 0.00 0.00 0.00 87 1018.6
20260902130223 78 114 0.0 0.0 0.00 0.00 0.00 88 1018.6
20260902130155 78 114 0.0 0.0 0.00 0.00 0.00 88 1018.6
20260902125724 78 114 0.0 0.0 0.00 0.00 0.00 88 1018.5
20260902125222 78 114 0.0 0.0 0.00 0.00 0.00 89 1018.5
20260902125157 77 114 0.0 0.0 0.00 0.00 0.00 88 1018.5
20260902124723 77 114 0.0 0.0 0.00 0.00 0.00 89 1018.5
20260902124222 77 114 0.0 0.0 0.00 0.00 0.00 89 1018.5
20260902124155 77 114 0.0 0.0 0.00 0.00 0.00 89 1018.5
20260902123723 76 114 0.0 0.0 0.00 0.00 0.00 90 1018.5
20260902123224 76 114 0.0 0.0 0.00 0.00 0.00 90 1018.5
20260902123157 76 114 0.0 0.0 0.00 0.00 0.00 90 1018.5
20260902122722 76 114 0.0 0.0 0.00 0.00 0.00 90 1018.3
20260902122224 76 114 0.0 0.0 0.00 0.00 0.00 90 1018.3
20260902122157 76 114 0.0 0.0 0.00 0.00 0.00 90 1018.3
20260902121722 76 114 0.0 0.0 0.00 0.00 0.00 90 1018.3
20260902121223 76 114 0.0 0.0 0.00 0.00 0.00 90 1018.2
20260902121156 76 114 0.0 0.0 0.00 0.00 0.00 90 1018.2
20260902120724 76 114 0.0 0.0 0.00 0.00 0.00 89 1018.2
20260902120236 76 114 0.0 0.0 0.00 0.00 0.00 88 1018.2
20260902120222 76 114 0.0 0.0 0.00 0.00 0.00 88 1018.2
20260902120155 76 114 0.0 0.0 0.00 0.00 0.00 88 1018.2
20260902115722 76 114 0.0 0.0 0.00 0.00 0.00 88 1018.1
20260902115224 76 114 0.0 0.0 0.00 0.00 0.00 88 1018.1
20260902115158 76 114 0.0 0.0 0.00 0.00 0.00 88 1018.1
20260902114722 76 114 0.0 0.0 0.00 0.00 0.00 87 1018.1
20260902114223 76 114 0.0 0.0 0.00 0.00 0.00 87 1018.0
20260902114156 76 114 0.0 0.0 0.00 0.00 0.00 87 1018.0
20260902113723 76 114 0.0 0.0 0.00 0.00 0.00 87 1018.0
20260902113223 76 114 0.0 0.0 0.00 0.00 0.00 87 1018.0
20260902113156 76 114 0.0 0.0 0.00 0.00 0.00 87 1018.0
20260902112722 76 114 0.0 0.0 0.00 0.00 0.00 87 1017.8
20260902112222 76 114 0.0 0.0 0.00 0.00 0.00 86 1017.8
20260902112155 76 114 0.0 0.0 0.00 0.00 0.00 86 1017.8
20260902111723 76 113 0.0 0.0 0.00 0.00 0.00 86 1017.8
20260902111222 76 114 0.0 0.0 0.00 0.00 0.00 86 1017.6
20260902111157 76 114 0.0 0.0 0.00 0.00 0.00 86 1017.6
20260902110722 76 113 0.0 0.0 0.00 0.00 0.00 86 1017.6
20260902110247 76 114 0.0 0.0 0.00 0.00 0.00 86 1017.6
20260902110223 76 114 0.0 0.0 0.00 0.00 0.00 86 1017.6
20260902110156 76 114 0.0 0.0 0.00 0.00 0.00 86 1017.6
20260902105722 76 114 0.0 0.0 0.00 0.00 0.00 85 1017.5
20260902105222 76 114 0.0 0.9 0.00 0.00 0.00 85 1017.5
20260902105155 76 114 0.9 1.7 0.00 0.00 0.00 85 1017.5
20260902104723 76 114 0.0 0.9 0.00 0.00 0.00 85 1017.5
20260902104222 76 119 0.0 0.0 0.00 0.00 0.00 84 1017.4
20260902104158 76 119 0.0 0.0 0.00 0.00 0.00 84 1017.4
20260902103722 76 119 0.0 0.9 0.00 0.00 0.00 84 1017.4
20260902103223 76 97 0.9 0.9 0.00 0.00 0.00 84 1017.4
20260902103156 76 107 0.9 1.7 0.00 0.00 0.00 84 1017.4
20260902102722 76 95 0.9 1.7 0.00 0.00 0.00 84 1017.4
20260902102222 76 89 0.9 1.7 0.00 0.00 0.00 84 1017.4
20260902102157 76 99 0.9 0.9 0.00 0.00 0.00 84 1017.4
20260902101723 76 89 1.7 1.7 0.00 0.00 0.00 83 1017.4
20260902101222 76 90 1.7 1.7 0.00 0.00 0.00 83 1017.3
20260902101158 76 90 1.7 1.7 0.00 0.00 0.00 83 1017.3
20260902100722 76 88 0.9 1.7 0.00 0.00 0.00 83 1017.3
20260902100223 76 100 1.7 1.7 0.00 0.00 0.00 83 1017.3
20260902100156 76 109 0.0 1.7 0.00 0.00 0.00 83 1017.3
20260902095722 76 90 1.7 2.6 0.00 0.00 0.00 83 1017.1
20260902095412 76 96 1.7 1.7 0.00 0.00 0.00 82 1017.1
20260902095223 76 97 1.7 1.7 0.00 0.00 0.00 82 1017.1
20260902095158 76 96 1.7 1.7 0.00 0.00 0.00 82 1017.1
20260902094722 76 97 0.9 1.7 0.00 0.00 0.00 82 1017.1
20260902094223 76 78 0.0 0.9 0.00 0.00 0.00 82 1016.9
20260902094156 76 78 0.9 1.7 0.00 0.00 0.00 82 1016.9
20260902093723 77 104 0.0 0.0 0.00 0.00 0.00 82 1016.9
20260902093222 77 89 0.9 1.7 0.00 0.00 0.00 81 1016.9
20260902093157 77 86 1.7 1.7 0.00 0.00 0.00 81 1016.9
20260902092723 77 83 1.7 1.7 0.00 0.00 0.00 81 1016.9
20260902092234 77 110 2.6 2.6 0.00 0.00 0.00 81 1016.9
20260902092223 77 113 1.7 2.6 0.00 0.00 0.00 81 1016.9
20260902092157 77 110 2.6 2.6 0.00 0.00 0.00 81 1016.9
20260902091723 77 120 0.9 1.7 0.00 0.00 0.00 80 1016.9
20260902091222 77 136 0.0 0.0 0.00 0.00 0.00 78 1016.7
20260902091157 77 136 0.0 0.0 0.00 0.00 0.00 78 1016.7
20260902090722 77 136 0.9 0.9 0.00 0.00 0.00 78 1016.7
20260902090223 78 136 0.0 0.0 0.00 0.00 0.00 78 1016.7
20260902090156 78 136 0.0 0.0 0.00 0.00 0.00 78 1016.7
20260902085722 78 136 0.0 0.0 0.00 0.00 0.00 77 1016.5
20260902085222 78 116 0.9 0.9 0.00 0.00 0.00 77 1016.5
20260902085155 78 116 0.9 0.9 0.00 0.00 0.00 77 1016.5
20260902084722 78 97 0.0 0.0 0.00 0.00 0.00 76 1016.5
20260902084223 78 103 0.9 1.7 0.00 0.00 0.00 76 1016.3
20260902084156 78 104 0.9 1.7 0.00 0.00 0.00 76 1016.3
20260902083723 78 90 0.9 1.7 0.00 0.00 0.00 76 1016.3
20260902083222 78 92 0.9 1.7 0.00 0.00 0.00 76 1016.3
20260902083157 78 100 1.7 1.7 0.00 0.00 0.00 76 1016.3
20260902082723 78 100 1.7 1.7 0.00 0.00 0.00 76 1016.3
20260902082223 78 96 0.9 0.9 0.00 0.00 0.00 77 1016.3
20260902082157 78 103 0.9 1.7 0.00 0.00 0.00 77 1016.3
20260902081722 78 97 0.0 0.9 0.00 0.00 0.00 77 1016.3
20260902081223 78 99 1.7 1.7 0.00 0.00 0.00 78 1016.2
20260902081156 78 93 0.0 1.7 0.00 0.00 0.00 78 1016.2
20260902080723 78 107 2.6 2.6 0.00 0.00 0.00 78 1016.2
20260902080222 78 82 0.9 1.7 0.00 0.00 0.00 78 1016.2
20260902080157 78 82 0.9 1.7 0.00 0.00 0.00 78 1016.2
20260902075722 78 88 1.7 1.7 0.00 0.00 0.00 78 1016.2
20260902075223 78 89 0.9 2.6 0.00 0.00 0.00 78 1016.2
20260902075157 78 95 1.7 1.7 0.00 0.00 0.00 78 1016.2
20260902074722 78 138 0.0 0.0 0.00 0.00 0.00 78 1016.2
20260902074223 79 138 0.0 0.0 0.00 0.00 0.00 77 1016.2
20260902074156 79 138 0.0 0.0 0.00 0.00 0.00 77 1016.2
20260902073723 79 138 0.0 0.9 0.00 0.00 0.00 77 1016.2
20260902073222 79 119 0.0 1.7 0.00 0.00 0.00 76 1016.2
20260902073157 79 119 0.9 1.7 0.00 0.00 0.00 76 1016.2
20260902072723 79 124 1.7 1.7 0.00 0.00 0.00 75 1016.1
20260902072223 79 120 1.7 1.7 0.00 0.00 0.00 75 1016.1
20260902072156 79 120 1.7 1.7 0.00 0.00 0.00 75 1016.1
20260902071722 79 112 0.9 1.7 0.00 0.00 0.00 75 1016.1
20260902071258 80 103 0.0 1.7 0.00 0.00 0.00 74 1016.1
20260902071223 80 95 1.7 1.7 0.00 0.00 0.00 75 1016.1
20260902071156 80 103 0.0 1.7 0.00 0.00 0.00 74 1016.1
20260902070723 80 99 1.7 1.7 0.00 0.00 0.00 74 1016.1
20260902070412 80 103 1.7 1.7 0.00 0.00 0.00 74 1016.1
20260902070222 80 93 0.9 1.7 0.00 0.00 0.00 74 1016.1
20260902070157 80 103 1.7 1.7 0.00 0.00 0.00 74 1016.1
20260902065723 80 106 0.9 1.7 0.00 0.00 0.00 74 1016.2
20260902065223 80 99 0.9 1.7 0.00 0.00 0.00 74 1016.2
20260902065156 80 99 1.7 1.7 0.00 0.00 0.00 74 1016.2
20260902064722 80 86 1.7 1.7 0.00 0.00 0.00 73 1016.2
20260902064223 80 103 0.9 1.7 0.00 0.00 0.00 73 1016.2
20260902064157 80 103 1.7 1.7 0.00 0.00 0.00 73 1016.2
20260902063723 80 103 0.9 1.7 0.00 0.00 0.00 73 1016.2
20260902063223 80 96 0.0 0.9 0.00 0.00 0.00 73 1016.2
20260902063156 80 97 1.7 1.7 0.00 0.00 0.00 73 1016.2
20260902062724 80 109 0.9 2.6 0.00 0.00 0.00 72 1016.3
20260902062222 80 93 0.9 2.6 0.00 0.00 0.00 72 1016.3
20260902062157 80 90 2.6 2.6 0.00 0.00 0.00 72 1016.3
20260902061723 80 76 1.7 1.7 0.00 0.00 0.00 72 1016.3
20260902061223 80 62 0.0 2.6 0.00 0.00 0.00 73 1016.4
20260902061159 80 59 2.6 2.6 0.00 0.00 0.00 73 1016.4
20260902060722 80 59 2.6 2.6 0.00 0.00 0.00 74 1016.4
20260902060223 80 48 1.7 2.6 0.00 0.00 0.00 74 1016.4
20260902060156 80 56 2.6 2.6 0.00 0.00 0.00 74 1016.4
20260902055724 80 71 1.7 2.6 0.00 0.00 0.00 74 1016.5
20260902055222 79 61 0.9 1.7 0.00 0.00 0.00 75 1016.5
20260902055157 79 56 1.7 1.7 0.00 0.00 0.00 75 1016.5
20260902054723 79 55 1.7 1.7 0.00 0.00 0.00 75 1016.5
20260902054224 79 68 0.9 0.9 0.00 0.00 0.00 75 1016.6
20260902054156 79 68 0.0 2.6 0.00 0.00 0.00 75 1016.6
20260902053722 79 66 0.9 1.7 0.00 0.00 0.00 75 1016.6
20260902053223 80 69 1.7 1.7 0.00 0.00 0.00 75 1016.6
20260902053155 80 65 0.9 1.7 0.00 0.00 0.00 75 1016.6
20260902052724 80 68 0.9 0.9 0.00 0.00 0.00 75 1016.7
20260902052222 80 72 0.9 0.9 0.00 0.00 0.00 74 1016.7
20260902052158 80 72 0.9 0.9 0.00 0.00 0.00 74 1016.7
20260902051723 80 64 0.9 1.7 0.00 0.00 0.00 74 1016.7
20260902051224 80 64 0.0 0.9 0.00 0.00 0.00 74 1016.7
20260902051156 80 64 0.9 0.9 0.00 0.00 0.00 74 1016.7
20260902050723 80 64 0.0 0.9 0.00 0.00 0.00 74 1016.7
20260902050222 80 64 0.9 1.7 0.00 0.00 0.00 74 1016.7
20260902050156 80 64 1.7 1.7 0.00 0.00 0.00 74 1016.7
20260902045723 80 64 1.7 1.7 0.00 0.00 0.00 74 1016.7
20260902045227 80 61 1.7 1.7 0.00 0.00 0.00 75 1016.7
20260902045224 80 61 0.0 0.9 0.00 0.00 0.00 75 1016.7
20260902045155 80 61 1.7 1.7 0.00 0.00 0.00 75 1016.7
20260902044722 80 64 0.0 2.6 0.00 0.00 0.00 75 1016.7
20260902044223 80 64 0.9 1.7 0.00 0.00 0.00 75 1016.7
20260902044157 80 58 1.7 1.7 0.00 0.00 0.00 75 1016.7
20260902043724 80 72 1.7 1.7 0.00 0.00 0.00 75 1016.7
20260902043222 80 83 0.9 1.7 0.00 0.00 0.00 76 1016.7
20260902043158 80 83 0.9 0.9 0.00 0.00 0.00 76 1016.7
20260902042723 80 97 0.0 0.0 0.00 0.00 0.00 76 1016.7
20260902042224 80 97 0.0 0.0 0.00 0.00 0.00 76 1016.7
20260902042155 80 97 0.0 0.0 0.00 0.00 0.00 76 1016.7
20260902041722 80 97 0.0 0.0 0.00 0.00 0.00 76 1016.7
20260902041223 80 97 0.0 0.0 0.00 0.00 0.00 75 1016.9
20260902041156 80 97 0.0 0.0 0.00 0.00 0.00 75 1016.9
20260902040723 81 97 0.0 0.0 0.00 0.00 0.00 74 1016.9
20260902040223 81 97 0.0 0.0 0.00 0.00 0.00 74 1016.9
20260902040156 81 97 0.0 0.0 0.00 0.00 0.00 74 1016.9
20260902035722 81 97 0.9 0.9 0.00 0.00 0.00 73 1016.9
20260902035223 81 97 0.0 0.0 0.00 0.00 0.00 73 1016.9
20260902035156 81 97 0.0 0.0 0.00 0.00 0.00 73 1016.9
20260902034723 81 97 0.0 0.0 0.00 0.00 0.00 73 1016.9
20260902034222 82 97 0.0 0.0 0.00 0.00 0.00 72 1016.8
20260902034157 82 97 0.0 0.0 0.00 0.00 0.00 72 1016.8
20260902033723 82 97 0.0 0.0 0.00 0.00 0.00 72 1016.8
20260902033223 82 97 0.0 0.0 0.00 0.00 0.00 71 1016.8
20260902033156 82 100 0.0 0.0 0.00 0.00 0.00 71 1016.8
20260902032722 82 93 0.0 0.9 0.00 0.00 0.00 71 1016.7
20260902032222 82 97 0.0 0.0 0.00 0.00 0.00 70 1016.7
20260902032155 82 97 0.0 0.0 0.00 0.00 0.00 70 1016.7
20260902031723 83 93 0.0 0.0 0.00 0.00 0.00 70 1016.7
20260902031223 83 82 1.7 1.7 0.00 0.00 0.00 70 1016.9
20260902031156 83 69 0.9 0.9 0.00 0.00 0.00 70 1016.9
20260902030723 83 73 0.0 0.0 0.00 0.00 0.00 69 1016.9
20260902030222 83 73 1.7 2.6 0.00 0.00 0.00 70 1016.9
20260902030157 83 79 0.9 2.6 0.00 0.00 0.00 70 1016.9
20260902025723 83 109 0.0 2.6 0.00 0.00 0.00 69 1016.8
20260902025223 83 89 0.9 2.6 0.00 0.00 0.00 69 1016.8
20260902025156 83 95 2.6 2.6 0.00 0.00 0.00 70 1016.8
20260902024724 83 80 1.7 1.7 0.00 0.00 0.00 70 1016.8
20260902024222 83 65 1.7 1.7 0.00 0.00 0.00 70 1016.8
20260902024155 83 66 0.9 1.7 0.00 0.00 0.00 70 1016.8
20260902023723 83 72 0.9 1.7 0.00 0.00 0.00 70 1016.8
20260902023224 83 75 0.0 0.9 0.00 0.00 0.00 69 1016.8
20260902023156 83 75 1.7 1.7 0.00 0.00 0.00 69 1016.8
20260902022722 83 73 0.9 0.9 0.00 0.00 0.00 69 1016.7
20260902022223 83 54 1.7 1.7 0.00 0.00 0.00 69 1016.7
20260902022155 83 68 0.9 1.7 0.00 0.00 0.00 69 1016.7
20260902021724 83 72 1.7 1.7 0.00 0.00 0.00 69 1016.7
20260902021222 83 51 0.9 1.7 0.00 0.00 0.00 69 1016.8
20260902021155 83 28 0.9 1.7 0.00 0.00 0.00 69 1016.8
20260902020723 83 68 2.6 2.6 0.00 0.00 0.00 69 1016.8
20260902020234 83 71 0.9 1.7 0.00 0.00 0.00 69 1016.8
20260902020222 83 71 0.0 0.9 0.00 0.00 0.00 69 1016.8
20260902020155 83 71 0.9 1.7 0.00 0.00 0.00 69 1016.8
20260902015723 83 56 0.0 0.9 0.00 0.00 0.00 69 1016.6
20260902015224 83 27 0.9 1.7 0.00 0.00 0.00 69 1016.6
20260902015156 83 8 0.9 2.6 0.00 0.00 0.00 69 1016.6
20260902014722 83 20 0.9 1.7 0.00 0.00 0.00 69 1016.6
20260902014223 83 66 0.0 1.7 0.00 0.00 0.00 69 1016.5
20260902014156 83 73 1.7 1.7 0.00 0.00 0.00 69 1016.5
20260902013724 83 49 1.7 1.7 0.00 0.00 0.00 70 1016.5
20260902013223 83 40 0.0 0.9 0.00 0.00 0.00 70 1016.5
20260902013156 83 41 0.0 1.7 0.00 0.00 0.00 70 1016.5
20260902012722 83 20 1.7 1.7 0.00 0.00 0.00 70 1016.3
20260902012223 83 40 0.9 0.9 0.00 0.00 0.00 71 1016.3
20260902012155 83 40 0.0 0.9 0.00 0.00 0.00 71 1016.3
20260902011723 83 66 1.7 1.7 0.00 0.00 0.00 71 1016.3
20260902011222 83 8 1.7 1.7 0.00 0.00 0.00 71 1016.3
20260902011157 83 10 0.9 1.7 0.00 0.00 0.00 71 1016.3
20260902010723 83 3 1.7 2.6 0.00 0.00 0.00 71 1016.3
20260902010223 83 20 0.0 0.9 0.00 0.00 0.00 71 1016.3
20260902010156 83 21 0.0 1.7 0.00 0.00 0.00 71 1016.3
20260902005722 83 4 1.7 1.7 0.00 0.00 0.00 71 1016.2
20260902005222 84 30 1.7 1.7 0.00 0.00 0.00 71 1016.2
20260902005155 84 30 1.7 1.7 0.00 0.00 0.00 71 1016.2
20260902004723 84 31 0.9 1.7 0.00 0.00 0.00 71 1016.2
20260902004224 84 51 0.0 0.9 0.00 0.00 0.00 71 1016.2
20260902004157 84 11 0.9 1.7 0.00 0.00 0.00 71 1016.2
20260902003722 84 28 0.9 2.6 0.00 0.00 0.00 71 1016.2
20260902003223 84 61 2.6 2.6 0.00 0.00 0.00 71 1016.2
20260902003156 84 10 0.9 1.7 0.00 0.00 0.00 71 1016.2
20260902002723 84 7 0.0 0.9 0.00 0.00 0.00 71 1016.2
20260902002223 84 24 1.7 1.7 0.00 0.00 0.00 71 1016.2
20260902002156 84 25 0.9 2.6 0.00 0.00 0.00 71 1016.2
20260902001724 84 25 0.9 1.7 0.00 0.00 0.00 71 1016.2
20260902001222 84 11 1.7 1.7 0.00 0.00 0.00 70 1016.4
20260902001155 84 11 0.9 1.7 0.00 0.00 0.00 70 1016.4
20260902000723 85 11 1.7 2.6 0.00 0.00 0.00 70 1016.4
20260902000222 85 7 0.9 1.7 0.00 0.00 0.00 70 1016.4
20260902000155 85 17 0.9 1.7 0.00 0.00 0.00 70 1016.4
20260901235723 85 6 1.7 1.7 0.00 0.00 0.00 69 1016.4
20260901235223 86 6 0.9 0.9 0.00 0.00 0.00 69 1016.4
20260901235156 86 6 0.9 0.9 0.00 0.00 0.00 69 1016.4
20260901234723 86 6 1.7 1.7 0.00 0.00 0.00 68 1016.4
20260901234223 86 6 1.7 1.7 0.00 0.00 0.00 68 1016.4
20260901234156 86 6 0.9 1.7 0.00 0.00 0.00 68 1016.4
20260901233723 86 6 0.9 1.7 0.00 0.00 0.00 67 1016.4
20260901233222 86 61 0.0 0.9 0.00 0.00 0.00 67 1016.4
20260901233157 86 61 0.0 0.9 0.00 0.00 0.00 67 1016.4
20260901232723 86 61 0.0 0.0 0.00 0.00 0.00 67 1016.5
20260901232223 87 66 0.9 1.7 0.00 0.00 0.00 66 1016.5
20260901232156 87 55 0.9 0.9 0.00 0.00 0.00 66 1016.5
20260901231723 87 11 0.0 0.0 0.00 0.00 0.00 66 1016.5
20260901231222 87 11 0.0 0.9 0.00 0.00 0.00 65 1016.4
20260901231158 87 11 0.0 0.9 0.00 0.00 0.00 65 1016.4
20260901230722 87 11 0.0 0.9 0.00 0.00 0.00 65 1016.4
20260901230223 88 11 0.0 1.7 0.00 0.00 0.00 65 1016.4
20260901230156 88 11 0.9 2.6 0.00 0.00 0.00 65 1016.4
20260901225723 88 13 1.7 1.7 0.00 0.00 0.00 65 1016.2
20260901225223 88 24 0.0 1.7 0.00 0.00 0.00 65 1016.2
20260901225156 88 32 0.9 0.9 0.00 0.00 0.00 65 1016.2
20260901224722 88 18 0.0 0.9 0.00 0.00 0.00 64 1016.2
20260901224222 88 18 0.9 0.9 0.00 0.00 0.00 65 1016.3
20260901224157 88 47 0.0 1.7 0.00 0.00 0.00 65 1016.3
20260901223722 89 357 0.0 0.9 0.00 0.00 0.00 64 1016.3
20260901223223 89 51 0.0 1.7 0.00 0.00 0.00 64 1016.3
20260901223156 89 49 1.7 2.6 0.00 0.00 0.00 62 1016.3
20260901222722 89 76 0.0 1.7 0.00 0.00 0.00 64 1016.2
20260901222223 89 71 1.7 2.6 0.00 0.00 0.00 63 1016.2
20260901222156 89 65 2.6 3.5 0.00 0.00 0.00 63 1016.2
20260901221724 89 72 1.7 1.7 0.00 0.00 0.00 61 1016.2
20260901221222 89 120 1.7 2.6 0.00 0.00 0.00 61 1016.3
20260901221157 89 85 1.7 2.6 0.00 0.00 0.00 61 1016.3
20260901220722 89 109 1.7 2.6 0.00 0.00 0.00 60 1016.3
20260901220223 90 58 1.7 1.7 0.00 0.00 0.00 62 1016.3
20260901220155 90 52 0.0 0.0 0.00 0.00 0.00 61 1016.3
20260901215723 90 58 2.6 2.6 0.00 0.00 0.00 60 1016.3
20260901215222 90 55 0.9 1.7 0.00 0.00 0.00 63 1016.3
20260901215157 90 51 1.7 1.7 0.00 0.00 0.00 63 1016.3
20260901214723 90 68 0.0 0.0 0.00 0.00 0.00 63 1016.3
20260901214223 90 73 0.0 0.0 0.00 0.00 0.00 60 1016.2
20260901214157 90 73 0.0 0.0 0.00 0.00 0.00 60 1016.2
20260901213723 90 75 2.6 2.6 0.00 0.00 0.00 62 1016.2
20260901213223 90 76 0.0 0.0 0.00 0.00 0.00 58 1016.2
20260901213156 90 76 0.0 0.9 0.00 0.00 0.00 58 1016.2
20260901212722 90 4 0.9 2.6 0.00 0.00 0.00 58 1016.4
20260901212224 91 56 0.9 4.3 0.00 0.00 0.00 58 1016.4
20260901212157 91 38 3.5 4.3 0.00 0.00 0.00 58 1016.4
20260901211722 91 0 0.9 1.7 0.00 0.00 0.00 58 1016.4
20260901211232 91 8 1.7 2.6 0.00 0.00 0.00 58 1016.5
20260901211223 91 11 1.7 2.6 0.00 0.00 0.00 58 1016.5
20260901211155 91 8 1.7 2.6 0.00 0.00 0.00 58 1016.5
20260901210723 91 16 2.6 2.6 0.00 0.00 0.00 58 1016.5
20260901210222 92 66 0.9 1.7 0.00 0.00 0.00 56 1016.5
20260901210157 92 62 0.9 1.7 0.00 0.00 0.00 55 1016.5
20260901205723 92 155 3.5 3.5 0.00 0.00 0.00 57 1016.6
20260901205223 92 40 0.9 3.5 0.00 0.00 0.00 58 1016.6
20260901205157 92 0 0.9 1.7 0.00 0.00 0.00 58 1016.6
20260901204723 92 79 0.9 1.7 0.00 0.00 0.00 56 1016.6
20260901204224 92 62 3.5 4.3 0.00 0.00 0.00 54 1016.7
20260901204156 92 51 2.6 4.3 0.00 0.00 0.00 56 1016.7
20260901203724 93 30 1.7 5.2 0.00 0.00 0.00 57 1016.7
20260901203222 93 0 0.0 0.0 0.00 0.00 0.00 56 1016.7
20260901203157 92 0 0.0 0.0 0.00 0.00 0.00 56 1016.7
20260901202723 92 56 0.0 0.9 0.00 0.00 0.00 53 1016.8